Wind_Speed
8 8 7 7 7 7 7 8 8 8 9 10 11 11 12 12 11 11 11 11 10 10 10 8 8 8 8 7 7 8 8 8 8 8 9 10 10 10 10 11 11 12 13 14
8 8 8 7 7 6 6 7 8 8 8 10 10 10 11 11 11 11 11 11 10 10 9 9 8 6 6 7 7 8 8 8 9 9 9 9 10 10 10 11 11 12 13 14
7 8 8 7 7 7 7 7 7 8 8 9 9 9 11 11 11 12 11 10 9 9 9 8 7 6 6 7 7 8 8 8 9 9 9 9 10 9 9 10 11 11 12 12
7 8 8 7 7 7 7 8 8 8 9 9 9 10 10 10 10 11 11 10 9 10 9 8 8 6 5 6 6 7 7 7 8 8 8 8 8 8 8 9 10 10 11 12
9 9 7 8 9 8 8 8 8 8 9 9 9 9 9 9 9 10 11 10 9 9 9 8 7 6 5 4 5 5 5 6 6 6 7 7 7 7 8 9 9 9 11 11
10 9 8 8 8 8 7 7 7 7 8 9 10 8 8 9 9 10 10 10 9 9 8 8 7 6 5 4 4 4 4 4 4 5 5 5 6 6 7 8 8 9 11 12
10 9 9 8 7 6 6 6 6 6 8 9 9 9 9 9 9 9 9 9 9 9 9 8 7 6 6 5 4 3 3 3 3 4 4 5 5 6 7 8 9 10 11 13
10 9 9 9 6 6 7 7 7 7 8 8 9 9 9 9 9 9 9 9 9 9 9 8 7 7 6 6 5 4 3 4 4 5 5 5 5 6 7 8 9 10 12 13
10 9 10 8 7 6 7 7 7 7 8 9 10 9 9 9 9 9 9 8 8 9 8 8 7 7 6 6 5 5 4 4 5 6 6 6 6 6 7 8 9 10 12 13
10 9 9 8 7 6 6 7 6 7 8 9 9 9 9 9 9 8 8 8 8 8 8 8 7 6 6 5 5 5 4 4 5 6 6 6 6 7 8 8 9 11 12 14
10 9 9 8 8 7 7 7 6 7 7 8 8 8 8 9 8 7 7 7 7 8 8 8 7 6 5 5 5 5 5 5 5 6 6 6 7 7 8 8 10 12 13 15
10 10 9 9 8 8 8 7 7 7 7 7 8 7 7 7 7 7 7 7 6 7 7 7 7 7 5 5 5 6 6 6 6 6 6 7 7 7 8 9 11 13 14 16
10 10 10 9 8 8 8 7 7 7 7 7 7 7 7 7 7 7 7 7 7 7 7 8 7 7 6 5 5 5 6 6 6 7 7 7 8 8 10 11 12 14 16 18
11 11 10 10 10 9 9 8 8 7 7 7 7 7 7 7 7 7 7 7 8 8 8 8 7 6 6 5 5 6 6 6 7 7 7 8 9 10 11 13 14 16 17 19
12 12 12 11 10 9 9 9 8 7 7 7 7 7 7 8 8 8 8 8 8 8 8 7 7 6 5 5 5 5 6 6 7 7 8 9 10 11 12 14 16 17 18 19
13 13 13 12 11 10 9 9 9 8 8 8 8 8 8 8 9 9 8 8 8 8 8 8 7 6 6 5 5 5 6 7 7 7 8 9 10 12 13 14 16 17 19 20
13 13 13 12 12 11 10 10 10 10 10 9 9 9 9 9 9 9 8 9 9 9 8 8 7 7 6 6 5 5 6 7 8 8 9 10 11 12 13 14 16 18 20 21
14 13 13 13 12 12 11 11 11 11 11 11 11 11 11 10 9 10 10 10 9 9 9 9 8 7 7 6 6 6 7 7 8 9 10 11 12 13 14 15 16 18 20 21
15 14 14 13 13 13 13 12 12 12 12 12 11 11 11 11 11 11 11 11 10 10 10 9 9 8 8 7 7 7 7 8 8 9 10 11 12 13 14 15 17 18 20 22
16 15 15 15 14 14 14 13 13 13 13 13 12 12 12 11 11 11 11 11 11 11 11 10 9 9 9 9 8 8 8 8 9 10 11 12 13 14 15 16 17 19 21 22
16 16 16 16 15 15 15 14 14 14 14 14 13 13 12 12 12 11 11 11 12 12 11 11 10 10 10 9 9 9 9 9 9 10 11 12 13 14 15 17 18 20 21 23
17 16 16 16 16 16 15 15 15 15 15 15 15 14 13 13 13 12 12 12 12 13 12 12 11 11 10 10 10 10 10 10 10 11 12 13 14 15 16 17 19 21 22 23
18 18 17 17 17 17 17 17 17 17 17 16 15 15 14 14 14 13 13 13 13 13 13 13 13 12 11 11 11 11 10 10 10 11 12 13 14 16 16 18 19 21 22 23
19 19 19 19 18 18 18 18 18 18 17 17 17 16 16 15 15 15 14 14 14 14 14 14 14 13 12 12 12 12 11 11 11 11 12 14 15 16 17 18 19 21 22 23
21 21 20 20 19 19 19 19 19 19 19 18 18 17 17 16 16 15 15 15 15 14 14 14 14 13 12 12 12 12 12 12 11 11 13 14 15 16 17 18 19 20 21 23
23 22 21 21 21 21 21 20 20 19 19 18 18 18 17 17 17 16 16 16 15 15 14 14 14 13 13 13 13 13 12 12 12 12 13 14 15 16 18 19 19 21 22 23
25 24 23 22 22 21 21 21 20 19 19 19 19 19 18 17 17 16 16 16 16 15 15 14 14 14 13 13 13 13 12 12 12 13 13 14 15 17 18 19 19 20 21 23
Wind_Direction
344 342 339 335 332 323 312 316 319 318 322 329 333 335 333 333 331 330 328 332 330 327 322 308 298 290 286 287 285 281 284 286 288 291 297 300 301 300 300 301 303 302 302 302
337 341 345 341 338 331 322 323 321 314 316 327 332 335 337 340 338 335 336 337 335 331 328 319 306 295 283 282 286 285 285 287 288 292 297 300 301 303 302 302 303 306 306 305
342 341 345 345 337 330 333 340 334 326 326 326 331 332 333 336 339 342 341 339 334 332 330 324 312 299 285 280 281 285 286 285 287 290 294 298 297 301 306 308 310 311 312 311
339 343 349 346 341 347 338 335 341 340 338 339 344 344 346 350 351 349 349 343 341 343 342 338 330 314 293 289 285 282 285 287 288 288 293 296 297 304 309 312 315 315 314 319
334 340 344 340 338 339 338 339 347 351 346 351 354 351 352 351 348 350 354 354 353 353 353 351 345 339 325 310 293 290 289 288 287 285 292 302 304 308 315 317 319 322 323 327
330 335 340 339 335 333 342 345 348 348 351 353 353 352 351 348 351 355 356 358 358 354 356 355 349 345 342 333 314 305 303 299 300 306 310 314 313 319 324 324 329 336 335 333
338 339 343 346 340 342 350 351 353 357 359 355 354 354 351 351 356 354 355 359 1 360 1 4 2 0 1 359 350 335 335 344 345 342 335 331 333 338 341 342 345 344 341 338
343 347 353 357 356 350 353 358 2 1 358 356 354 354 352 354 354 354 356 358 360 1 3 7 10 11 11 7 7 8 17 19 9 356 351 350 350 353 352 349 348 346 344 343
336 341 346 353 354 345 348 353 351 349 352 353 352 349 351 353 354 354 357 359 359 2 6 8 10 13 14 16 18 17 14 12 3 359 358 356 354 353 352 347 347 346 344 341
331 333 335 338 337 334 335 340 342 345 352 354 352 351 350 353 355 357 359 1 5 6 7 7 9 11 13 16 15 5 357 354 355 355 356 353 350 348 349 351 349 346 344 343
331 330 323 320 323 324 325 331 334 338 338 343 348 347 347 350 354 358 359 4 11 12 8 7 4 1 5 7 4 0 358 356 355 352 350 348 347 347 349 349 348 346 345 344
329 330 324 317 312 312 314 320 326 328 323 328 334 339 343 346 351 352 350 353 359 360 360 359 356 353 350 351 355 357 356 355 354 353 349 346 345 347 345 344 343 343 342 342
320 324 320 315 312 312 310 311 316 318 320 321 324 330 336 340 341 342 341 341 342 343 345 345 344 342 341 342 346 348 350 350 349 352 352 347 345 343 341 339 339 341 341 342
310 317 314 308 305 304 301 300 304 310 314 314 315 315 320 326 329 331 332 333 334 335 336 335 334 331 331 336 340 342 342 346 345 344 346 348 346 343 341 341 341 341 343 344
304 310 308 302 296 295 293 292 295 300 304 307 308 308 310 315 318 321 324 324 327 330 330 331 330 325 322 325 326 331 335 335 339 341 344 345 342 340 340 341 341 342 344 345
299 303 302 297 292 287 287 288 287 292 297 299 303 306 309 311 313 315 316 315 314 318 323 327 328 322 316 318 320 324 329 331 332 337 340 343 341 341 342 344 345 346 345 346
297 299 299 294 288 280 280 281 279 284 289 292 296 301 305 307 308 310 310 310 308 308 311 314 318 321 319 317 312 314 321 329 329 331 331 331 333 335 338 340 342 344 344 346
291 294 296 296 290 280 278 277 275 279 284 286 290 293 297 299 300 302 304 304 304 304 305 306 307 312 314 312 308 310 313 317 322 328 332 331 331 335 338 340 342 343 343 344
286 288 289 290 286 280 279 277 275 277 278 282 286 290 293 294 295 296 297 298 298 298 300 301 302 304 304 303 304 306 309 313 316 323 326 327 331 335 337 339 339 340 342 343
282 283 285 287 284 280 278 276 274 275 276 277 280 283 287 290 291 292 294 294 294 295 296 296 295 297 296 294 299 301 303 309 316 322 325 328 334 336 337 336 337 339 340 342
279 280 281 282 282 281 277 275 275 275 273 273 275 278 281 283 285 289 290 290 291 292 294 292 289 291 292 290 294 296 301 308 313 319 325 328 330 331 334 336 338 338 339 341
274 276 277 279 281 280 277 275 274 272 270 270 271 273 275 277 281 287 289 288 289 289 289 287 285 286 286 284 287 289 294 303 311 316 322 327 328 330 332 335 338 339 339 340
271 273 275 277 278 278 276 274 273 272 271 270 269 271 272 274 277 281 284 284 285 285 284 284 282 282 282 282 284 286 290 297 304 310 317 322 325 328 332 335 337 339 340 341
270 271 274 275 276 276 276 273 272 272 271 269 268 269 269 271 275 279 279 280 282 282 281 281 279 279 278 278 282 284 287 292 298 307 314 319 324 328 332 335 336 338 340 342
268 269 271 273 274 274 275 273 271 271 270 268 267 267 268 269 272 275 276 279 281 279 279 278 278 277 276 276 278 282 284 288 295 306 312 316 322 328 333 335 336 338 340 341
266 267 269 271 271 271 273 273 272 269 268 267 267 266 265 266 267 269 272 275 276 276 277 277 278 277 277 276 277 281 283 287 294 301 307 311 316 324 330 333 335 337 339 340
263 265 266 267 267 267 269 270 271 270 267 266 267 266 264 264 265 265 267 271 273 273 274 275 276 276 276 276 276 278 279 282 288 297 302 305 311 320 327 331 332 335 337 339
Height
5805 5803 5802 5801 5800 5799 5799 5798 5797 5796 5796 5795 5793 5791 5789 5787 5785 5782 5780 5778 5776 5774 5772 5771 5770 5769 5769 5768 5767 5767 5767 5766 5766 5765 5764 5763 5762 5761 5760 5759 5757 5755 5754 5752
5805 5803 5801 5801 5800 5799 5798 5796 5795 5795 5795 5793 5792 5790 5788 5786 5783 5781 5778 5776 5774 5772 5770 5768 5767 5767 5766 5766 5765 5765 5765 5764 5763 5763 5762 5761 5760 5759 5757 5755 5754 5752 5750 5748
5805 5802 5801 5801 5799 5797 5796 5795 5794 5793 5793 5791 5790 5788 5786 5784 5782 5780 5777 5775 5773 5771 5768 5767 5765 5764 5764 5763 5763 5763 5762 5762 5761 5760 5759 5758 5757 5756 5754 5752 5751 5749 5746 5744
5804 5803 5801 5802 5798 5796 5795 5794 5793 5792 5791 5790 5789 5787 5784 5782 5780 5778 5776 5773 5771 5769 5767 5765 5764 5762 5762 5761 5760 5760 5759 5759 5758 5758 5757 5756 5754 5753 5751 5750 5748 5746 5744 5741
5803 5801 5800 5799 5797 5795 5794 5793 5792 5791 5790 5789 5787 5786 5784 5782 5780 5777 5775 5773 5770 5768 5766 5764 5762 5761 5760 5759 5758 5758 5757 5757 5756 5755 5754 5753 5752 5751 5749 5747 5745 5743 5741 5739
5802 5800 5799 5800 5797 5795 5794 5793 5792 5791 5789 5788 5786 5785 5784 5781 5779 5777 5775 5773 5771 5769 5766 5764 5762 5761 5759 5758 5757 5757 5756 5756 5755 5754 5753 5752 5751 5749 5747 5745 5743 5741 5739 5736
5801 5799 5798 5798 5796 5795 5795 5794 5791 5790 5788 5787 5785 5784 5782 5780 5778 5776 5774 5773 5771 5769 5766 5764 5762 5761 5760 5758 5757 5756 5756 5755 5754 5753 5752 5751 5750 5748 5746 5744 5742 5740 5737 5735
5800 5799 5800 5796 5795 5795 5794 5792 5791 5789 5788 5786 5784 5783 5781 5779 5777 5776 5774 5772 5771 5769 5767 5765 5763 5761 5760 5759 5758 5757 5756 5755 5754 5753 5752 5750 5749 5747 5745 5743 5741 5739 5736 5733
5799 5799 5797 5795 5794 5793 5792 5791 5790 5789 5787 5786 5784 5782 5781 5779 5777 5775 5774 5772 5771 5769 5767 5765 5764 5762 5761 5759 5758 5757 5757 5756 5755 5753 5752 5750 5748 5747 5745 5743 5740 5738 5735 5732
5797 5796 5795 5794 5793 5792 5791 5790 5789 5788 5786 5785 5783 5782 5780 5778 5777 5775 5774 5772 5770 5769 5767 5766 5764 5763 5761 5760 5759 5758 5756 5755 5754 5753 5751 5750 5748 5746 5744 5742 5740 5737 5734 5731
5796 5795 5794 5793 5792 5791 5790 5789 5788 5787 5785 5784 5783 5781 5780 5778 5776 5775 5774 5772 5771 5769 5767 5766 5765 5763 5762 5760 5759 5758 5756 5755 5754 5752 5751 5749 5748 5746 5743 5741 5739 5736 5733 5729
5794 5793 5792 5791 5790 5789 5788 5787 5787 5786 5785 5783 5782 5780 5779 5777 5776 5774 5773 5772 5770 5769 5767 5766 5764 5763 5762 5760 5759 5758 5756 5754 5753 5752 5750 5749 5747 5745 5743 5741 5738 5735 5731 5727
5792 5791 5790 5789 5788 5787 5786 5785 5785 5784 5783 5782 5781 5779 5778 5777 5775 5774 5772 5771 5770 5768 5767 5765 5764 5762 5761 5760 5759 5757 5756 5754 5753 5751 5750 5748 5747 5745 5742 5740 5736 5733 5729 5725
5790 5789 5788 5787 5786 5785 5784 5783 5783 5782 5781 5780 5779 5778 5777 5775 5774 5773 5771 5770 5768 5767 5766 5764 5762 5761 5760 5759 5758 5757 5755 5754 5753 5751 5749 5748 5746 5744 5741 5738 5735 5731 5727 5723
5787 5786 5785 5784 5783 5782 5782 5781 5780 5780 5779 5778 5777 5776 5775 5774 5773 5771 5770 5768 5767 5766 5764 5763 5761 5760 5759 5758 5757 5756 5755 5753 5752 5750 5748 5747 5745 5742 5739 5736 5733 5729 5725 5721
5784 5783 5781 5780 5780 5779 5779 5778 5777 5777 5776 5776 5775 5774 5773 5772 5771 5769 5768 5766 5765 5764 5763 5762 5760 5759 5758 5757 5756 5755 5754 5752 5751 5749 5747 5746 5743 5741 5738 5734 5731 5727 5723 5719
5779 5779 5778 5777 5776 5776 5775 5775 5774 5774 5773 5773 5772 5771 5770 5769 5768 5767 5766 5764 5763 5762 5761 5760 5759 5758 5756 5755 5754 5753 5752 5751 5749 5748 5746 5744 5741 5739 5736 5733 5729 5725 5721 5717
5775 5774 5774 5773 5772 5772 5771 5771 5771 5771 5770 5769 5768 5768 5767 5766 5765 5764 5763 5761 5760 5759 5758 5758 5757 5756 5755 5753 5753 5752 5751 5749 5748 5746 5744 5742 5739 5737 5733 5730 5727 5723 5719 5715
5770 5770 5769 5769 5768 5767 5767 5767 5767 5767 5766 5766 5765 5764 5763 5762 5762 5760 5759 5758 5757 5756 5755 5754 5754 5753 5752 5751 5750 5749 5748 5747 5746 5744 5742 5740 5737 5734 5731 5728 5725 5721 5717 5712
5765 5765 5765 5764 5763 5763 5763 5763 5763 5762 5762 5761 5761 5760 5759 5759 5758 5756 5755 5754 5754 5753 5752 5751 5751 5750 5749 5748 5748 5747 5746 5745 5743 5741 5739 5737 5734 5731 5728 5725 5722 5718 5714 5709
5760 5760 5759 5759 5759 5758 5758 5758 5758 5758 5757 5757 5756 5756 5755 5755 5754 5753 5752 5751 5750 5749 5749 5748 5747 5747 5746 5745 5745 5744 5743 5742 5741 5739 5737 5734 5731 5729 5726 5723 5719 5715 5711 5706
5754 5754 5754 5753 5753 5753 5753 5753 5753 5752 5752 5752 5752 5751 5751 5750 5750 5749 5748 5747 5746 5745 5745 5744 5744 5743 5742 5742 5741 5740 5740 5739 5737 5736 5734 5731 5729 5726 5723 5719 5716 5712 5708 5703
5747 5747 5747 5747 5747 5747 5747 5747 5747 5747 5747 5746 5746 5746 5746 5746 5745 5745 5744 5743 5742 5741 5741 5740 5739 5739 5738 5738 5737 5737 5736 5735 5734 5732 5731 5728 5726 5723 5720 5716 5713 5709 5704 5700
5741 5741 5741 5741 5741 5741 5741 5741 5741 5741 5741 5741 5741 5741 5741 5741 5740 5740 5739 5738 5738 5737 5737 5736 5735 5735 5734 5734 5733 5733 5732 5731 5730 5729 5727 5725 5723 5720 5717 5713 5709 5705 5701 5697
5733 5734 5734 5734 5734 5734 5734 5734 5735 5735 5735 5735 5735 5735 5735 5735 5735 5735 5734 5734 5733 5732 5732 5731 5731 5730 5730 5729 5729 5729 5728 5727 5726 5725 5724 5722 5719 5717 5714 5710 5707 5703 5699 5694
5725 5726 5726 5727 5727 5727 5727 5727 5728 5728 5728 5728 5729 5729 5729 5730 5730 5730 5729 5729 5728 5728 5727 5726 5726 5726 5725 5725 5724 5724 5724 5723 5722 5721 5720 5718 5716 5713 5710 5707 5704 5700 5696 5691
5717 5718 5718 5719 5719 5719 5719 5720 5720 5721 5721 5722 5722 5722 5723 5723 5724 5724 5724 5723 5723 5722 5722 5722 5721 5721 5720 5720 5720 5719 5719 5719 5718 5717 5716 5714 5712 5710 5707 5704 5700 5697 5693 5689